Regional Weather Roundup
Issued by NWS

Home | Current Version | Previous Version | Text Only | Print | Product List | Glossary Off
Versions: 1 2 3 4 5 6 7 8 9 10 11 12 13 14 15 16 17 18 19 20 21 22 23 24 25 26 27 28 29 30 31 32 33 34 35 36 37 38 39 40 41 42 43 44 45 46 47 48 49 50

000
ASUS43 KMPX 241210
RWRMN
WEATHER ROUNDUP FOR MINNESOTA
NATIONAL WEATHER SERVICE TWIN CITIES/CHANHASSEN MN
700 AM CDT THU JUL 24 2014


NOTE: "FAIR" INDICATES FEW OR NO CLOUDS BELOW 12,000 FEET WITH NO
SIGNIFICANT WEATHER AND/OR OBSTRUCTIONS TO VISIBILITY. N/A MEANS
CURRENT SKY AND/OR WEATHER CONDITIONS ARE NOT AVAILABLE.

MNZ060>063-068>070-241300-
   Twin Cities Metro

CITY           SKY/WX    TMP DP  RH WIND       PRES   REMARKS
TWIN CITIES    PTSUNNY   65  58  78 E6        30.15F
6HR MIN TEMP:  63; 6HR MAX TEMP:  68;

ST PAUL        SUNNY     63  59  87 SE5       30.16F
CRYSTAL        SUNNY     61  57  87 CALM      30.13F
BLAINE         SUNNY     63  61  94 SE3       30.15F
LAKEVILLE      SUNNY     55  54  94 CALM      30.15F
EDEN PRAIRIE   SUNNY     64  58  80 E5        30.13F
6HR MIN TEMP:  60; 6HR MAX TEMP:  66;

SOUTH ST PAUL  SUNNY     62  56  82 CALM      30.15F
LAKE ELMO      FAIR      59  57  94 CALM      30.17F
$$
MNZ001>005-007-008-013>017-022>024-027-028-241300-
   Northwest Minnesota

CITY           SKY/WX    TMP DP  RH WIND       PRES   REMARKS
BEMIDJI        SUNNY     56  55  97 CALM      30.13F
HALLOCK        MOCLDY    57  54  88 SE7       30.08F
ROSEAU         SUNNY     50  45  81 CALM      30.11F
WARROAD        MOSUNNY   54  48  82 CALM      30.12F
THIEF RVR FALL PTCLDY    55  54  94 CALM      30.11F
CROOKSTON      MOCLDY    61  57  88 SE6       30.10F
FOSSTON        MOCLDY    57  54  88 SE3       30.13S
DETROIT LAKES  MOCLDY    61  57  88 SE6       30.14S
MOORHEAD       MOCLDY    63  63 100 SE5       30.10F
PARK RAPIDS    PTCLDY    55  54  96 CALM      30.14F
$$
MNZ006-009>011-018-025>026-241300-
   North Central Minnesota

CITY           SKY/WX    TMP DP  RH WIND       PRES   REMARKS
BAUDETTE       PTSUNNY   55  52  89 E3        30.14F
FLAG ISLAND    PTSUNNY   64  54  68 E3        30.12S
INTL FALLS     MOSUNNY   52  50  93 CALM      30.16F
6HR MIN TEMP:  46; 6HR MAX TEMP:  52;

WASKISH        MOSUNNY   54  52  94 CALM      30.13F
BIG FORK       MOSUNNY   50  48  93 CALM      30.17F
LONGVILLE      SUNNY     50  50 100 CALM      30.14F
GRAND RAPIDS   MOSUNNY   54  50  87 SE3       30.16F
CRANE LAKE     SUNNY     46  45  93 CALM      30.19F
ORR            MOSUNNY   52  48  87 CALM      30.15F
COOK           MOSUNNY   46  46 100 NW1       30.18F
$$
MNZ012-019>021-037-241300-
   Northeast Minnesota

CITY           SKY/WX    TMP DP  RH WIND       PRES   REMARKS
DULUTH         MOSUNNY   59  53  80 SE3       30.17F
6HR MIN TEMP:  54; 6HR MAX TEMP:  60;

ELY            SUNNY     48  46  93 CALM      30.18F
HIBBING        PTSUNNY   50  46  86 CALM      30.17F
EVELETH        MOSUNNY   46  45  93 CALM      30.18F
DULUTH HARBOR  MOSUNNY   57  55  94 CALM      30.18F
TWO HARBORS    SUNNY     52  46  82 CALM      30.16F
SILVER BAY     SUNNY     46  46 100 CALM      30.17S
GRAND MARAIS     N/A     53  49  86 CALM      30.17S
G MARAIS ARPRT SUNNY     52  46  82 CALM      30.20F
$$
MNZ029>031-032-039>041-046>048-054>057-064-241300-
   West Central Minnesota

CITY           SKY/WX    TMP DP  RH WIND       PRES   REMARKS
FERGUS FALLS   PTCLDY    64  55  72 SE7       30.11F
WHEATON        CLEAR     55  54  94 SE7       30.12S
MORRIS         CLEAR     57  55  94 SE3       30.11F
ALEXANDRIA     PTCLDY    61  55  81 SE7       30.15F
ELBOW LAKE     FAIR      62  56  81 SE6       30.12F
WADENA         MOCLDY    54  54 100 CALM      30.14S
GLENWOOD       CLEAR     57  55  94 E5        30.14F
APPLETON       CLEAR     59  55  88 SE3       30.12S
BENSON         CLEAR     59  55  88 S3        30.13F
ORTONVILLE     CLEAR     59  55  88 SE5       30.11F
MADISON        CLEAR     61  57  88 SE3       30.12S
WILLMAR        FAIR      59  55  88 CALM      30.15F
$$
MNZ033>034-036-042>043-049>051-058-059-241300-
   Central Minnesota

CITY           SKY/WX    TMP DP  RH WIND       PRES   REMARKS
ST CLOUD       SUNNY     56  52  86 CALM      30.14F
6HR MIN TEMP:  51; 6HR MAX TEMP:  57;

SAUK CENTRE    FAIR      53  53  99 CALM      30.15R
PAYNESVILLE    CLEAR     51  51 100 CALM      30.16S
AITKIN         SUNNY     54  48  82 CALM      30.14F
PINE RIVER     MOSUNNY   52  52 100 CALM      30.17F
BRAINERD       MOSUNNY   53  53 100 CALM      30.15F
STAPLES        PTCLDY    54  54 100 CALM      30.14F
LONG PRAIRIE   FAIR      55  54  94 CALM      30.15S
LITTLE FALLS   SUNNY     52  50  93 CALM      30.15F
LITCHFIELD       N/A     57  57 100 CALM      30.15F
BUFFALO        SUNNY     59  55  87 CALM      30.15F
MAPLE LAKE     SUNNY     57  56  97 CALM      30.15F
$$
MNZ037-044-045-052-053-241300-
   East Central Minnesota

CITY           SKY/WX    TMP DP  RH WIND       PRES   REMARKS
PRINCETON      SUNNY     55  54  94 CALM      30.15F
MORA           SUNNY     55  54  94 CALM      30.17F
CAMBRIDGE      SUNNY     59  52  77 CALM      30.13F
RUSH CITY      LGT RAIN  54  53  96 CALM      30.16F
MOOSE LAKE     SUNNY     54  52  94 CALM      30.15F
HINCKLEY       FAIR      55  55 100 CALM      30.16F
CLOQUET        FAIR      55  52  88 CALM      30.17S
MCGREGOR       MOSUNNY   54  52  94 CALM      30.16F
$$
MNZ071>073-080-081-089-090-097-098-241300-
   Southwest Minnesota

CITY           SKY/WX    TMP DP  RH WIND       PRES   REMARKS
MONTEVIDEO     CLEAR     59  57  94 CALM      30.13F
GRANITE FALLS  CLEAR     58  54  88 E3        30.15S
CANBY          PTCLDY    59  55  87 SE3       30.14R
MARSHALL       CLEAR     61  52  72 S3        30.13R
REDWOOD FALLS  CLEAR     59  55  87 CALM      30.13F
OLIVIA         CLEAR     57  52  82 CALM      30.13S
PIPESTONE      CLEAR     61  54  77 SE6       30.14R
WINDOM         CLEAR     57  52  82 CALM      30.15S
WORTHINGTON    CLEAR     59  55  88 SE3       30.16R
JACKSON        CLEAR     57  54  88 CALM      30.15S
TRACY          CLEAR     64  52  65 S5        30.14S
SLAYTON        CLEAR     59  55  85 CALM      30.16R
$$
MNZ065>067-074>077-082>085-091>093-241300-
   South Central Minnesota

CITY           SKY/WX    TMP DP  RH WIND       PRES   REMARKS
MANKATO        CLEAR     59  54  82 SE5       30.14F
NEW ULM        CLEAR     57  57 100 CALM      30.13F
ST JAMES       CLEAR     57  54  88 CALM      30.15F
FAIRMONT       CLEAR     57  52  82 CALM      30.14F
GLENCOE        CLEAR     58  53  83 CALM      30.13F
FARIBAULT      SUNNY     57  52  82 CALM      30.15F
OWATONNA       SUNNY     57  55  94 SE3       30.15F
WASECA         SUNNY     55  50  82 CALM      30.16F
ALBERT LEA     SUNNY     55  55 100 CALM      30.16F
$$
MNZ078>079-086>088-094>096-241300-
   Southeast Minnesota

CITY           SKY/WX    TMP DP  RH WIND       PRES   REMARKS
ROCHESTER      SUNNY     59  54  83 SE3       30.19S
6HR MIN TEMP:  56; 6HR MAX TEMP:  64;

RED WING       SUNNY     57  55  94 CALM      30.15F
STANTON        SUNNY     55  53  92 CALM      30.15F
DODGE CENTER   MOSUNNY   57  55  94 CALM      30.17F
WINONA         CLOUDY    61  59  94 CALM      30.17F
AUSTIN         MOSUNNY   57  55  94 CALM      30.16F
PRESTON        SUNNY     56  57 100 CALM      30.19S
$$
ABBREVIATIONS USED IN REMARKS
   TC - TEMPERATURES IN CELSIUS
  WCI - WIND CHILL INDEX
   HX - HEAT INDEX
  VSB - VISIBILITY
$$


USA.gov is the U.S. government's official web portal to all federal, state and local government web resources and services.